FW6727 Weather Reports


Display with metric or nautical units.
time (UTC)temp
F
wind
direction
speed
MPH
gust
MPH
rain 1hr
in
rain 24hr
in
rain mn
in
humidity
%
barometer
mb
20260504081540 44 0 0.0 0.0 0.00 0.00 0.00 87 1017.5
20260504044536 50 278 0.0 2.0 0.00 0.00 0.00 78 1017.7
20260504043039 51 0 0.0 1.0 0.00 0.00 0.00 76 1017.5
20260504041537 52 279 0.0 2.0 0.00 0.00 0.00 75 1017.8
20260504040040 53 0 0.0 2.0 0.00 0.00 0.00 73 1017.7
20260504034538 54 278 0.0 2.0 0.00 0.00 0.00 72 1017.7
20260504033039 55 0 0.0 3.0 0.00 0.00 0.00 69 1017.6
20260504031541 57 286 0.0 6.0 0.00 0.00 0.00 64 1017.6
20260504030042 58 283 3.0 8.0 0.00 0.00 0.00 57 1017.5
20260504024537 59 273 2.0 9.0 0.00 0.01 0.00 57 1017.5
20260504023043 57 278 4.0 9.0 0.00 0.01 0.00 60 1017.2
20260504021539 55 203 0.0 5.0 0.00 0.01 0.00 67 1017.2
20260504020037 55 0 0.0 2.0 0.00 0.01 0.00 69 1017.1
20260504014552 56 181 0.0 2.0 0.00 0.01 0.00 67 1016.9
20260504013041 57 0 0.0 1.0 0.00 0.01 0.00 65 1016.7
20260504011539 58 0 1.0 2.0 0.00 0.01 0.00 63 1016.6
20260504010046 60 0 0.0 2.0 0.00 0.01 0.00 60 1016.5
20260504004538 62 181 0.0 3.0 0.00 0.01 0.00 58 1016.4
20260504003040 63 183 0.0 2.0 0.00 0.01 0.00 53 1016.3
20260504001551 65 184 1.0 3.0 0.00 0.01 0.00 51 1016.0
20260504000045 66 165 0.0 4.0 0.00 0.01 0.00 49 1015.9
20260503234539 67 0 1.0 3.0 0.00 0.01 0.00 46 1015.7
20260503233040 67 169 1.0 5.0 0.00 0.01 0.00 44 1015.7
20260503231542 68 232 2.0 7.0 0.00 0.01 0.00 42 1015.8
20260503230045 68 257 2.0 10.0 0.00 0.01 0.00 40 1015.9
20260503224544 69 153 1.0 8.0 0.00 0.08 0.00 39 1015.8
20260503223039 70 265 4.0 9.0 0.00 0.08 0.00 39 1016.0
20260503221547 70 167 2.0 11.0 0.00 0.08 0.00 40 1015.9
20260503220037 70 210 3.0 10.0 0.00 0.08 0.00 40 1016.1
20260503214542 70 224 4.0 11.0 0.00 0.08 0.00 39 1016.2
20260503213038 70 226 3.0 9.0 0.00 0.08 0.00 38 1016.3
20260503211538 70 181 2.0 11.0 0.00 0.08 0.00 42 1016.4
20260503210048 69 178 1.0 12.0 0.00 0.08 0.00 38 1016.5
20260503204546 70 257 5.0 14.0 0.00 0.08 0.00 40 1016.7
20260503203039 69 258 5.0 16.0 0.00 0.08 0.00 41 1016.9
20260503201538 69 121 1.0 11.0 0.00 0.08 0.00 39 1017.3
20260503200044 69 210 3.0 9.0 0.00 0.08 0.00 41 1017.7
20260503194537 69 253 3.0 14.0 0.00 0.08 0.00 41 1018.0
20260503193043 68 193 3.0 11.0 0.00 0.08 0.00 42 1018.5
20260503191542 68 245 4.0 11.0 0.00 0.08 0.00 44 1018.8
20260503190045 67 146 5.0 11.0 0.00 0.08 0.00 43 1018.8
20260503184537 67 311 1.0 10.0 0.00 0.08 0.00 46 1019.2
20260503183043 66 160 2.0 7.0 0.00 0.08 0.00 42 1019.3
20260503181538 66 207 3.0 12.0 0.00 0.08 0.00 44 1019.5
20260503180037 66 277 6.0 11.0 0.00 0.08 0.00 43 1019.5
20260503174537 65 122 3.0 9.0 0.00 0.08 0.00 43 1019.7
20260503173124 65 259 4.0 10.0 0.00 0.08 0.00 45 1019.8
20260503171545 63 271 2.0 11.0 0.00 0.08 0.00 44 1019.9